Regional Weather Roundup
Issued by NWS

Home | Current Version | Previous Version | Graphics & Text | Print | Product List | Glossary On
Versions: 1 2 3 4 5 6 7 8 9 10 11 12 13 14 15 16 17 18 19 20 21 22 23 24 25 26 27 28 29 30 31 32 33 34 35 36 37 38 39 40 41 42 43 44 45 46 47 48 49 50
000
ASUS43 KIND 210309
RWRIN

WEATHER ROUNDUP FOR INDIANA
NATIONAL WEATHER SERVICE INDIANAPOLIS IN
1000 PM EST MON NOV 20 2017

NOTE: "FAIR" INDICATES FEW OR NO CLOUDS BELOW 12,000 FEET WITH NO
SIGNIFICANT WEATHER AND/OR OBSTRUCTIONS TO VISIBILITY.

* - STATION DOES NOT REPORT WEATHER SUCH AS PRECIPITATION OR FOG.

+ - STATION NOT QUALITY CONTROLLED BY THE NATIONAL WEATHER SERVICE.
    USE DATA WITH CAUTION...ESPECIALLY DEWPOINT AND RELATIVE
    HUMIDITY OBSERVATIONS.

INZ001>003-010>013-019-020-210400-
NORTHWEST INDIANA

CITY           SKY/WX    TMP DP  RH WIND       PRES   REMARKS
GARY /AIRPORT/ PTCLDY    46  28  49 S18G36    29.79S
KNOX *+        CLEAR     41  30  65 S18G26    29.82S
LA PORTE +     CLEAR     40  30  66 S12G18    29.82S WCI  33
MICHIGAN CITY+ CLEAR     41  30  65 S17G26    29.80S
MONTICELLO +   CLEAR     41  26  54 S14       29.86R
RENSSELAER +   CLEAR     43  23  45 S18G28    29.85S
VALPARAISO     CLEAR     44  30  57 SW17      29.82S

$$

LMZ046-743>745-210400-
SOUTHERN LAKE MICHIGAN

STATION/POSITION TIME  TEMP    WIND        PRES    WAVE
                       AIR SEA DIR/SP/G            HT
                 (UTC) (F)     (DEG/KT/KT) (MB)    (FT)
BURNS HARBOR     0234   45     200/ 21/ 27 1008.8R
MICHIGAN CITY    0240   44     180/ 20/ 27   N/A

$$

INZ004-005-014>016-021>024-210400-
NORTH CENTRAL INDIANA

CITY           SKY/WX    TMP DP  RH WIND       PRES   REMARKS
GOSHEN         CLEAR     42  24  49 S15       29.83R
LOGANSPORT +   CLEAR     37  28  70 S16       29.87S WCI  28
PERU/GRISSOM   CLEAR     41  25  53 S20G29    29.85F
ROCHESTER +    CLEAR     43  27  52 SW14G21   29.86R
SOUTH BEND     CLEAR     41  29  62 SW20      29.83R
WARSAW +       CLEAR     41  27  56 SW8G16    29.84S

$$

INZ006>009-017-018-025>027-210400-
NORTHEAST INDIANA

CITY           SKY/WX    TMP DP  RH WIND       PRES   REMARKS
AUBURN +       CLEAR     41  27  56 S12G20    29.86S
FORT WAYNE     PTCLDY    41  27  57 S17G28    29.87F
HUNTINGTON +   CLEAR     40  24  54 S14G20    29.87S WCI  32
KENDALLVILLE + CLEAR     39  27  60 SW15      29.84S WCI  31

$$

INZ028-029-035-036-043>045-051>053-210400-
WEST CENTRAL INDIANA

CITY           SKY/WX    TMP DP  RH WIND       PRES   REMARKS
CRAWFORDSVL +  CLEAR     40  26  56 S15G23    29.87S WCI  32
GREENCASTLE +  CLEAR     43  21  42 S12       29.91F
LAFAYETTE      CLEAR     41  27  57 S9G17     29.88R
TERRE HAUTE    CLEAR     44  24  45 S12       29.92F

$$

INZ030>032-037>040-046>048-054>057-064-065-210400-
CENTRAL INDIANA

CITY           SKY/WX    TMP DP  RH WIND       PRES   REMARKS
CP ATTERBURY + CLEAR     37  25  60 SE6       29.97F WCI  33
COLUMBUS       CLEAR     37  21  52 S9        29.98F WCI  31
FISHERS *+     CLEAR     39  28  65 S13G20    29.92F WCI  32
FRANKFORT +    CLEAR     42  27  57 S15G24    29.89F
GREENWOOD *+   CLEAR     41  27  58 S8        29.95F
INDIANAPOLIS   PTCLDY    41  24  51 S14       29.93F
-EAGLE CREEK   CLEAR     41  23  48 S8        29.92F
KOKOMO +       CLEAR     41  26  55 S18       29.87F
MARION +       CLEAR     39  27  62 S17G24    29.90F WCI  30
MT COMFORT *+  CLEAR     37  30  75 S12G20    29.94S WCI  30
SHELBYVILLE    CLEAR     41  24  51 S14       29.95F
ZIONSVILLE +   CLEAR     38  25  58 S15       29.90F WCI  30

$$

INZ033-034-041-042-049-050-058-059-210400-
EAST CENTRAL INDIANA

CITY           SKY/WX    TMP DP  RH WIND       PRES   REMARKS
MUNCIE         CLEAR     42  25  50 S16G29    29.91F
RICHMOND +     CLEAR     32  28  86 S13       29.97F WCI  22

$$

INZ060-061-067>069-081>083-085>088-210400-
SOUTHWEST INDIANA

CITY           SKY/WX    TMP DP  RH WIND       PRES   REMARKS
EVANSVILLE     CLEAR     42  25  50 S10       30.02F
HUNTINGBURG +  CLEAR     41  26  55 S8        30.01F
WASHINGTON +   CLEAR     40  24  52 S13       29.97F WCI  33

$$

INZ062-063-066-070>080-084-089>092-210400-
SOUTH CENTRAL AND SOUTHEAST INDIANA

CITY           SKY/WX    TMP DP  RH WIND       PRES   REMARKS
BEDFORD +      CLEAR     41  23  48 S9        29.98F
BLOOMINGTON    CLEAR     41  23  48 S10       29.95F
MADISON *+     CLEAR     39  23  52 S7        30.03F WCI  34
NORTH VERNON + CLEAR     39  23  52 S10       30.00F WCI  32
SEYMOUR +      CLEAR     39  25  56 S8        30.00F WCI  34

$$





USA.gov is the U.S. government's official web portal to all federal, state and local government web resources and services.